Location: Caltech
(34.1382°N, 118.1253°W)
Time: 14:06:55
(UTC-07:00)

Saudisat 1A - Visible Passes

Search period start: 18 June 2018 00:00
Search period end: 28 June 2018 00:00
Orbit: 586 x 605 km, 64.6° (Epoch: 17 June)

Date Brightness Start Highest point End Pass type
(mag) Time Alt. Az. Time Alt. Az. Time Alt. Az.
18 Jun 8.9 02:37:46 44° NNW 02:37:46 44° NNW 02:41:07 10° NNE visible
19 Jun 10.8 01:10:31 11° ENE 01:10:31 11° ENE 01:10:50 10° ENE visible
19 Jun 9.5 02:47:08 28° NW 02:47:08 28° NW 02:50:29 10° N visible
20 Jun 10.3 01:19:50 19° NE 01:19:50 19° NE 01:21:10 10° NE visible
20 Jun 10.1 02:56:27 17° NW 02:56:38 17° NW 02:59:30 10° N visible
21 Jun 10.0 01:29:06 26° NNE 01:29:06 26° NNE 01:31:04 10° NNE visible
22 Jun 9.8 01:38:19 29° N 01:38:19 29° N 01:40:41 10° NNE visible
23 Jun 10.1 01:47:30 23° NNW 01:47:30 23° NNW 01:50:01 10° N visible
24 Jun 10.5 00:20:00 15° NE 00:20:00 15° NE 00:20:51 10° NE visible
24 Jun 10.5 01:56:37 15° NW 01:56:37 15° NW 01:58:54 10° NNW visible
25 Jun 10.2 00:29:04 22° NNE 00:29:04 22° NNE 00:30:41 10° NNE visible
26 Jun 10.0 00:38:03 26° N 00:38:03 26° N 00:40:16 10° NNE visible
26 Jun 10.7 23:10:20 10° NE 23:10:20 10° NE 23:10:21 10° NE visible
27 Jun 10.2 00:46:56 22° NNW 00:46:56 22° NNW 00:49:31 10° N visible
27 Jun 10.1 23:19:08 19° NE 23:19:08 19° NE 23:20:30 10° NE visible
